| time (UTC) | temp C | wind direction | speed KPH | gust KPH | rain 1hr cm | rain 24hr cm | rain mn cm | humidity % | barometer mb |
| 20260509224500 | 16 | 146 | 8.0 | 25.7 | 0.00 | 0.00 | 0.00 | 64 | 1004.1 |
| 20260509223100 | 17 | 204 | 9.7 | 20.9 | 0.00 | 0.00 | 0.00 | 62 | 1004.2 |
| 20260509221559 | 17 | 229 | 12.9 | 22.5 | 0.00 | 0.00 | 0.00 | 62 | 1004.1 |
| 20260509220109 | 17 | 211 | 12.9 | 29.0 | 0.00 | 0.00 | 0.00 | 61 | 1004.1 |
| 20260509214559 | 17 | 226 | 11.3 | 22.5 | 0.00 | 0.00 | 0.00 | 60 | 1004.3 |
| 20260509213055 | 17 | 192 | 11.3 | 22.5 | 0.00 | 0.00 | 0.00 | 59 | 1004.3 |
| 20260509211556 | 17 | 165 | 14.5 | 24.1 | 0.00 | 0.00 | 0.00 | 57 | 1004.5 |
| 20260509210052 | 17 | 228 | 17.7 | 29.0 | 0.00 | 0.00 | 0.00 | 57 | 1004.7 |
| 20260509204552 | 17 | 148 | 12.9 | 32.2 | 0.00 | 0.00 | 0.00 | 58 | 1004.5 |
| 20260509203114 | 17 | 221 | 12.9 | 29.0 | 0.00 | 0.00 | 0.00 | 59 | 1004.7 |
| 20260509201601 | 17 | 210 | 11.3 | 27.4 | 0.00 | 0.00 | 0.00 | 61 | 1004.9 |
| 20260509200056 | 17 | 233 | 17.7 | 35.4 | 0.00 | 0.00 | 0.00 | 62 | 1004.7 |
| 20260509194547 | 17 | 222 | 12.9 | 33.8 | 0.00 | 0.00 | 0.00 | 61 | 1004.8 |
| 20260509193049 | 17 | 232 | 19.3 | 30.6 | 0.00 | 0.00 | 0.00 | 59 | 1005.0 |
| 20260509191555 | 17 | 257 | 17.7 | 27.4 | 0.00 | 0.00 | 0.00 | 59 | 1005.2 |
| 20260509190043 | 17 | 216 | 20.9 | 30.6 | 0.00 | 0.00 | 0.00 | 58 | 1005.2 |
| 20260509184540 | 17 | 217 | 9.7 | 24.1 | 0.00 | 0.00 | 0.00 | 56 | 1005.6 |
| 20260509183038 | 17 | 174 | 4.8 | 25.7 | 0.00 | 0.00 | 0.00 | 57 | 1005.9 |
| 20260509181539 | 16 | 259 | 11.3 | 20.9 | 0.00 | 0.00 | 0.00 | 55 | 1005.9 |
| 20260509180035 | 16 | 202 | 12.9 | 20.9 | 0.00 | 0.00 | 0.00 | 55 | 1005.9 |
| 20260509174534 | 16 | 158 | 8.0 | 24.1 | 0.00 | 0.00 | 0.00 | 56 | 1006.1 |
| 20260509173033 | 16 | 238 | 17.7 | 30.6 | 0.00 | 0.00 | 0.00 | 59 | 1006.3 |
| 20260509171533 | 16 | 131 | 9.7 | 22.5 | 0.00 | 0.00 | 0.00 | 55 | 1006.3 |
| 20260509170028 | 16 | 163 | 9.7 | 17.7 | 0.00 | 0.00 | 0.00 | 57 | 1006.6 |
| 20260509164525 | 16 | 198 | 6.4 | 19.3 | 0.00 | 0.00 | 0.00 | 56 | 1006.9 |
| 20260509163024 | 16 | 133 | 6.4 | 16.1 | 0.00 | 0.00 | 0.00 | 56 | 1006.9 |
| 20260509161523 | 16 | 187 | 1.6 | 12.9 | 0.00 | 0.00 | 0.00 | 54 | 1007.0 |
| 20260509160024 | 15 | 238 | 6.4 | 12.9 | 0.00 | 0.00 | 0.00 | 56 | 1007.5 |
| 20260509154522 | 16 | 193 | 0.0 | 17.7 | 0.00 | 0.00 | 0.00 | 49 | 1007.8 |
| 20260509153017 | 16 | 207 | 8.0 | 24.1 | 0.00 | 0.00 | 0.00 | 49 | 1007.9 |
| 20260509151515 | 16 | 252 | 6.4 | 20.9 | 0.00 | 0.00 | 0.00 | 44 | 1008.1 |
| 20260509150013 | 16 | 238 | 8.0 | 14.5 | 0.00 | 0.00 | 0.00 | 50 | 1008.2 |
| 20260509144509 | 15 | 133 | 9.7 | 17.7 | 0.00 | 0.00 | 0.00 | 51 | 1008.3 |
| 20260509143008 | 15 | 167 | 4.8 | 14.5 | 0.00 | 0.00 | 0.00 | 54 | 1008.5 |
| 20260509141508 | 14 | 103 | 4.8 | 12.9 | 0.00 | 0.00 | 0.00 | 53 | 1008.5 |
| 20260509140001 | 13 | 111 | 8.0 | 16.1 | 0.00 | 0.00 | 0.00 | 51 | 1008.7 |
| 20260509134559 | 13 | 111 | 12.9 | 20.9 | 0.00 | 0.00 | 0.00 | 52 | 1008.8 |
| 20260509133102 | 12 | 104 | 8.0 | 11.3 | 0.00 | 0.00 | 0.00 | 54 | 1008.9 |
| 20260509131554 | 12 | 172 | 4.8 | 14.5 | 0.00 | 0.00 | 0.00 | 56 | 1009.1 |
| 20260509130100 | 11 | 169 | 9.7 | 19.3 | 0.00 | 0.00 | 0.00 | 55 | 1009.1 |
| 20260509124549 | 11 | 141 | 9.7 | 24.1 | 0.00 | 0.00 | 0.00 | 55 | 1009.0 |
| 20260509123050 | 11 | 153 | 8.0 | 16.1 | 0.00 | 0.00 | 0.00 | 57 | 1009.3 |
| 20260509121541 | 10 | 135 | 11.3 | 16.1 | 0.00 | 0.00 | 0.00 | 58 | 1009.4 |
| 20260509120038 | 10 | 165 | 8.0 | 14.5 | 0.00 | 0.00 | 0.00 | 58 | 1009.6 |
| 20260509114538 | 9 | 144 | 1.6 | 14.5 | 0.00 | 0.00 | 0.00 | 60 | 1009.6 |
| 20260509113031 | 8 | 111 | 3.2 | 16.1 | 0.00 | 0.00 | 0.00 | 61 | 1009.5 |
| 20260509111527 | 7 | 136 | 3.2 | 12.9 | 0.00 | 0.00 | 0.00 | 64 | 1009.6 |
| 20260509110025 | 6 | 143 | 4.8 | 11.3 | 0.00 | 0.00 | 0.00 | 66 | 1009.5 |
| 20260509104520 | 5 | 114 | 4.8 | 11.3 | 0.00 | 0.00 | 0.00 | 69 | 1009.3 |
| 20260509103019 | 5 | 102 | 1.6 | 8.0 | 0.00 | 0.00 | 0.00 | 71 | 1009.1 |
| 20260509101519 | 3 | 119 | 1.6 | 6.4 | 0.00 | 0.00 | 0.00 | 72 | 1009.1 |
| 20260509100022 | 3 | 128 | 4.8 | 8.0 | 0.00 | 0.00 | 0.00 | 72 | 1009.1 |
| 20260509094515 | 3 | 133 | 3.2 | 11.3 | 0.00 | 0.00 | 0.00 | 71 | 1009.1 |
| 20260509093013 | 4 | 160 | 6.4 | 14.5 | 0.00 | 0.00 | 0.00 | 69 | 1009.2 |
| 20260509091510 | 4 | 157 | 8.0 | 12.9 | 0.00 | 0.00 | 0.00 | 68 | 1009.4 |
| 20260509090008 | 4 | 147 | 6.4 | 11.3 | 0.00 | 0.00 | 0.00 | 68 | 1009.6 |
| 20260509084512 | 5 | 146 | 6.4 | 9.7 | 0.00 | 0.00 | 0.00 | 67 | 1009.6 |
| 20260509083015 | 4 | 160 | 6.4 | 12.9 | 0.00 | 0.00 | 0.00 | 67 | 1009.7 |
| 20260509081510 | 5 | 157 | 6.4 | 9.7 | 0.00 | 0.00 | 0.00 | 66 | 1009.8 |
| 20260509080000 | 5 | 150 | 3.2 | 9.7 | 0.00 | 0.00 | 0.00 | 64 | 1009.8 |
| 20260509074559 | 5 | 152 | 6.4 | 11.3 | 0.00 | 0.00 | 0.00 | 63 | 1009.9 |
| 20260509073059 | 5 | 166 | 8.0 | 16.1 | 0.00 | 0.00 | 0.00 | 63 | 1009.9 |
| 20260509071600 | 5 | 162 | 8.0 | 14.5 | 0.00 | 0.00 | 0.00 | 62 | 1009.9 |
| 20260509064555 | 5 | 157 | 6.4 | 12.9 | 0.00 | 0.00 | 0.00 | 62 | 1010.1 |
| 20260509063053 | 5 | 172 | 6.4 | 14.5 | 0.00 | 0.00 | 0.00 | 62 | 1010.2 |
| 20260509061611 | 5 | 151 | 8.0 | 14.5 | 0.00 | 0.00 | 0.00 | 62 | 1010.3 |
| 20260509060106 | 5 | 151 | 4.8 | 9.7 | 0.00 | 0.00 | 0.00 | 62 | 1010.4 |
| 20260509054552 | 5 | 191 | 3.2 | 9.7 | 0.00 | 0.00 | 0.00 | 62 | 1010.7 |
| 20260509053047 | 5 | 170 | 4.8 | 12.9 | 0.00 | 0.00 | 0.00 | 61 | 1010.8 |
| 20260509051546 | 5 | 164 | 6.4 | 11.3 | 0.00 | 0.00 | 0.00 | 61 | 1010.7 |
| 20260509050101 | 5 | 169 | 4.8 | 11.3 | 0.00 | 0.00 | 0.00 | 61 | 1010.8 |
| 20260509044555 | 5 | 187 | 6.4 | 12.9 | 0.00 | 0.00 | 0.00 | 62 | 1011.0 |
| 20260509043040 | 5 | 192 | 6.4 | 11.3 | 0.00 | 0.00 | 0.00 | 64 | 1010.9 |
| 20260509041537 | 5 | 172 | 4.8 | 11.3 | 0.00 | 0.00 | 0.00 | 64 | 1011.0 |
| 20260509040033 | 5 | 181 | 6.4 | 12.9 | 0.00 | 0.00 | 0.00 | 65 | 1010.9 |
| 20260509034533 | 5 | 251 | 4.8 | 11.3 | 0.00 | 0.00 | 0.00 | 67 | 1010.9 |
| 20260509033032 | 5 | 219 | 3.2 | 8.0 | 0.00 | 0.00 | 0.00 | 70 | 1010.8 |
| 20260509031532 | 5 | 155 | 4.8 | 8.0 | 0.00 | 0.00 | 0.00 | 70 | 1011.0 |
| 20260509030037 | 6 | 158 | 4.8 | 11.3 | 0.00 | 0.00 | 0.00 | 70 | 1011.0 |
| 20260509024531 | 6 | 179 | 4.8 | 11.3 | 0.00 | 0.00 | 0.00 | 71 | 1011.2 |
| 20260509023037 | 6 | 178 | 4.8 | 11.3 | 0.00 | 0.00 | 0.00 | 71 | 1011.3 |
| 20260509021530 | 6 | 180 | 3.2 | 8.0 | 0.00 | 0.00 | 0.00 | 71 | 1011.3 |
| 20260509020029 | 6 | 202 | 3.2 | 8.0 | 0.00 | 0.00 | 0.00 | 71 | 1011.3 |
| 20260509014529 | 6 | 203 | 3.2 | 9.7 | 0.00 | 0.00 | 0.00 | 71 | 1011.3 |
| 20260509013031 | 6 | 169 | 4.8 | 8.0 | 0.00 | 0.00 | 0.00 | 70 | 1011.2 |
| 20260509011528 | 6 | 225 | 1.6 | 4.8 | 0.00 | 0.00 | 0.00 | 68 | 1011.1 |
| 20260509010027 | 6 | 198 | 3.2 | 6.4 | 0.00 | 0.00 | 0.00 | 66 | 1010.8 |
| 20260509004535 | 7 | 206 | 4.8 | 8.0 | 0.00 | 0.00 | 0.00 | 66 | 1010.7 |
| 20260509003025 | 7 | 226 | 4.8 | 11.3 | 0.00 | 0.00 | 0.00 | 65 | 1010.7 |
| 20260509001525 | 7 | 224 | 6.4 | 12.9 | 0.00 | 0.00 | 0.00 | 64 | 1010.6 |
| 20260509000034 | 8 | 212 | 3.2 | 8.0 | 0.00 | 0.00 | 0.00 | 61 | 1010.5 |
| 20260508234527 | 9 | 217 | 6.4 | 19.3 | 0.00 | 0.00 | 0.00 | 54 | 1010.4 |
| 20260508233023 | 10 | 238 | 12.9 | 20.9 | 0.00 | 0.00 | 0.00 | 52 | 1010.4 |
| 20260508231523 | 10 | 228 | 9.7 | 22.5 | 0.00 | 0.00 | 0.00 | 53 | 1010.3 |
| 20260508230022 | 10 | 229 | 16.1 | 29.0 | 0.00 | 0.00 | 0.00 | 51 | 1010.4 |